STARLINK-32562, 62168

Orbit data source: Space-Track

STARLINK-32562, 62168 is a payload satellite owned by SpaceX/Seattle (US) in LEO that was launched on Sat, 30 Nov 2024 UTC via an FALCON 9 launch vehicle from the Air Force Western Test Range (AFWTR). Payload-class satellites include a variety of spacecraft equipped with specific instruments for various scientific and technological missions. These include communications satellites like Starlink; space stations such as the ISS; scientific satellites like the Hubble; Earth observation satellites from companies like Planet Labs, Umbra, and HawkEye 360; GPS; miniature CubeSats for education and research; and military/defense satellites.

Loading next visibility...
Identifier
62168, 2024-225F
Orbit
LEO
Country
Flag of USUS
Related business
Manufacturer
SpaceX/Seattle
Mission
Operational Commercial Communications
Bus & Motor
STARLINK V2M, Unknown motor
Mass
730 kg wet, ~700 kg dry
Launch date (UTC)
2024-11-30 (1 year ago)
Launch vehicle
FALCON 9
Launch site
Air Force Western Test Range (AFWTR)
Object type
Payload
Rocket body
Debris
Shape & HBR
Box + 2 Pan, 17.7 m
Radar Cross Section
33.884 m², Large (>1 m²)

Expand to show TLE details & history
Last TLE update: 11 hours ago

TLE from 11 hours ago
0 STARLINK-32562
1 62168U 24225F   26062.73966216 -.00002665  00000-0 -21548-3 0  9998
2 62168  70.0026 179.4583 0003297 271.0349  89.0433 14.98350203 68987
Epoch: 2026-03-03T17:45Z
TLE epoch observation values (Epoch: 2026-03-03T17:45:06.810Z)
Latitude
0.00003°
Longitude
111.66554°
Altitude
574.38 km
Speed
7.574 km/s
True Right ascension
11h 57m 49s
True Declination
0° 00' 00"
Sunlit
Object was in full shadow at epoch
Visualization orbit readout
Latitude
Unknown
Longitude
Unknown
Altitude
Unknown
Speed
Unknown
Apparent Right ascension
Unknown
Apparent Declination
Unknown
Sunlit
N/A
Visualization observer readout
Local Sidereal Time
08:44:16
Azimuth
Unknown
Elevation
Unknown
Doppler factor
Unknown
Orbital elements
Apogee altitude
572.232 km
Perigee altitude
567.651 km
Semi-major axis
6,948.078 km
Eccentricity
0.00033
Inclination
70.0026°
RAAN
179.4583°
Arg. of periapsis
271.0349°
True anomaly
89.08108°
Mean anomaly
89.0433°
Eccentric anomaly
89.06219°
Mean motion
3.74754 °/min
Orbital period
96.06 mins
BSTAR
-0.00021548
Loading maneuver chart data...
Computing Atmospheric mass density...
Loading historical data...
Loading historical data...
Loading historical data...
Loading historical data...
Loading historical data...
Loading historical data...
Loading historical data...

Documentation

Showing up to 5 results
|